www.pogodaiklimat.ru

Погода и климат >> Архив погоды >> Россия >> город Москва >> Москва


АРХИВ ПОГОДЫ в Москве

Время (UTC), дата Ветер
(напр.,м/с)
 
Видим.   Явления Облачность Т
(С)
Тd
(С)
f
(%)
Тe
(С)
Тes
(С)
Комфортность P
(гПа)
Po
(гПа)
Тmin
(С)
Tmax
(С)
R
(мм)
R24
(мм)
S
(см)
03 14.10 штиль 0 н/о дымка 8/8 600 м
[Sc]
+6.7 +5.8 94 +6 +6 по сезону 1000.3 981.3 +6.7 0.5
06 14.10 штиль 0 4000 м слабый ливневой дождь 10/10 300 м
[Cb cap]
+7.4 +6.6 95 +6 +6 по сезону 1000.7 981.7 +6.7 0.9
09 14.10 СЗ 1 4000 м в посл. час ливневой дождь 10/10 300 м
[Cb cap]
+6.7 +5.3 91 +6 +6 по сезону 1003.1 984.0
12 14.10 СЗ 3 4000 м слабый дождь {ливн. осадки} 10/10 300 м
[Frnb]
+6.6 +4.9 89 +3 +3 прохладно 1005.0 985.9
15 14.10 СЗ 2 4000 м слабый ливневой дождь 10/10 300 м
[Cb cap]
+5.8 +4.3 90 +3 +3 прохладно 1006.9 987.7 3
18 14.10 СЗ 2 н/о в посл. час дождь {ливн. осадки} 10/10 300 м
[Frnb]
+5.4 +3.9 90 +3 +3 по сезону 1007.6 988.3 +8.0 2
21 14.10 СЗ 2 н/о 10/10 600 м
[Sc]
+5.3 +2.1 80 +3 +3 по сезону 1007.4 988.1
00 15.10 З 1 н/о 10/10 600 м
[Sc]
+5.2 +2.8 84 +4 +4 по сезону 1007.3 988.0
03 15.10 СЗ 1 н/о 10/10 600 м
[Sc]
+4.9 +1.2 77 +4 +4 по сезону 1005.6 986.3 +4.8 0.5
06 15.10 ЮЗ 1 10 км 10/10 1000 м
[Sc]
+5.1 +2.5 83 +4 +4 по сезону 1003.2 984.0 +4.7
09 15.10 штиль 0 4000 м слабый ливневой дождь 10/10 600 м
[Cb calv]
+4.3 +2.8 90 +3 +3 по сезону 1000.8 981.6
12 15.10 С 1 4000 м слабый ливневой дождь 10/10 300 м
[Cb calv]
+4.5 +3.1 91 +3 +3 прохладно 1000.2 981.0
15 15.10 С 2 н/о дымка {ливн. осадки} 10/10 600 м
[Sc]
+4.7 +3.0 89 +2 +2 прохладно 1003.8 984.6 4
18 15.10 СЗ 2 н/о дымка {ливн. осадки} 10/10 600 м
[Sc]
+5.4 +2.9 84 +3 +3 по сезону 1005.8 986.6 +5.8 4
21 15.10 СЗ 3
{11}
н/о дымка 10/10 600 м
[Sc]
+5.0 +2.5 84 +2 +2 по сезону 1007.7 988.4
00 16.10 СЗ 4-10
{11}
н/о дымка 10/10 600 м
[Sc]
+5.1 +0.9 74 +1 +1 по сезону 1009.5 990.1
03 16.10 СЗ 2
{10}
н/о 10/10 600 м
[Sc]
+4.9 +0.8 75 +2 +2 по сезону 1011.4 992.0 +4.7
06 16.10 СЗ 2
{10}
10 км 10/10 600 м
[Sc]
+4.8 +0.8 75 +2 +2 по сезону 1012.8 993.4 +4.6
09 16.10 С 2 10 км 10/10 600 м
[Sc]
+5.6 +1.1 73 +3 +3 по сезону 1014.4 995.1
12 16.10 С 3 10 км 8/8 600 м
[Sc]
+6.0 +0.7 69 +3 +3 прохладно 1015.4 996.0
15 16.10 штиль 0 н/о 6/4 600 м
[Sc Ac trans]
+3.9 +0.7 80 +3 +3 по сезону 1015.5 996.0
18 16.10 штиль 0 н/о дымка 10/0
[Ac und]
+4.8 +2.4 84 +4 +4 по сезону 1014.3 994.9 +6.5
21 16.10 штиль 0 н/о дымка 10/10 600 м
[Sc]
+4.8 +2.5 85 +4 +4 по сезону 1012.7 993.3
00 17.10 штиль 0 н/о дымка 10/10 600 м
[Sc]
+6.0 +4.5 90 +5 +5 по сезону 1010.1 990.9
03 17.10 СЗ 1 н/о дымка {дождь} 10/10 300 м
[Frnb]
+7.4 +6.7 95 +6 +6 по сезону 1009.1 989.9 +2.6 0.7
06 17.10 З 1 4000 м дымка {дождь} 9/9 600 м
[Sc]
+9.8 +8.9 94 +9 +9 тепло 1010.1 991.1 +4.8 0.7
09 17.10 СЗ 2
{10}
10 км 10/4 600 м
[Sc Ci fib]
+11.0 +4.9 66 +10 +12 тепло 1012.4 993.4
12 17.10 СЗ 2 10 км 10/0
[Cs]
+10.7 +2.8 58 +10 +11 тепло 1013.8 994.7
15 17.10 З 1 н/о 10/0
[As op Cs]
+8.2 +1.9 64 +8 +8 по сезону 1015.1 995.8
18 17.10 З 1 н/о 10/0
[As op Cs]
+6.7 +1.9 71 +6 +6 по сезону 1015.0 995.6 +11.3
21 17.10 Ю 1 н/о 10/0
[As op]
+7.5 +2.6 71 +7 +7 тепло 1013.6 994.3
00 18.10 Ю 1 н/о 10/4 600 м
[Sc As trans]
+9.0 +3.3 67 +9 +9 тепло 1008.7 989.6
03 18.10 З 2 н/о 10/10 600 м
[Sc]
+9.2 +6.3 82 +8 +8 тепло 1007.6 988.6 +6.5
06 18.10 З 2 4000 м дымка 10/10 300 м
[Frnb]
+11.1 +8.6 85 +10 +10 тепло 1006.5 987.6 +6.5
09 18.10 ЮЗ 1 10 км 8/8 600 м
[Cu med, cong]
+13.8 +8.7 71 +14 +15 тепло 1004.3 985.9
12 18.10 ЮЗ 1 10 км 10/10 600 м
[Sc]
+14.3 +8.2 67 +15 +15 тепло 1003.1 984.5
15 18.10 З 1 н/о 1/1 1000 м
[Sc]
+12.1 +4.5 60 +12 +12 тепло 1004.5 985.8
18 18.10 З 1 н/о 8/8 1000 м
[Sc]
+11.4 +5.2 66 +11 +11 тепло 1004.9 986.1 +14.7
21 18.10 З 2 н/о 10/10 600 м
[Cb cap]
+11.2 +6.2 71 +10 +10 тепло 1005.3 986.5
00 19.10 СЗ 2 н/о {ливн. осадки} 3/3 600 м
[Sc]
+6.0 +2.3 77 +4 +4 по сезону 1009.2 989.9
03 19.10 СЗ 1 н/о 10/10 600 м
[Sc]
+5.9 +0.8 70 +5 +5 по сезону 1011.4 992.1 +5.6 1
06 19.10 СЗ 1 10 км 9/9 600 м
[Sc]
+5.8 +1.5 74 +5 +5 по сезону 1013.0 993.7 +5.3 1
09 19.10 СЗ 2 10 км 9/9 600 м
[Sc]
+7.7 +1.2 63 +6 +6 по сезону 1014.1 994.8
12 19.10 З 1 10 км 10/10 600 м
[Sc]
+7.1 +1.2 66 +6 +6 по сезону 1015.7 996.4
15 19.10 З 1 н/о 9/9 600 м
[Sc]
+6.5 +1.8 72 +6 +6 по сезону 1016.4 997.1
18 19.10 СЗ 2 н/о 10/10 1000 м
[Sc]
+6.3 +2.2 75 +4 +4 по сезону 1017.3 997.9 +8.2
21 19.10 штиль 0 н/о дымка 3/3 1000 м
[Sc]
+3.7 +1.7 87 +3 +3 по сезону 1018.5 998.9
00 20.10 штиль 0 н/о дымка 8/8 1000 м
[Sc]
+3.1 +1.8 91 +2 +2 по сезону 1019.2 999.5
03 20.10 штиль 0 н/о дымка 8/8 1000 м
[Sc]
+2.7 +1.6 92 +2 +2 по сезону 1020.1 1000.4 +2.6
06 20.10 С 1 10 км 9/9 600 м
[Sc]
+4.2 +1.9 85 +3 +3 по сезону 1021.0 1001.4 +2.6
09 20.10 З 1 10 км 8/8 600 м
[Sc]
+5.8 +1.5 74 +5 +6 по сезону 1021.9 1002.4
12 20.10 З 1 10 км в посл. час крупа 5/4 600 м
[Cu hum Ci fib]
+7.1 -0.7 58 +7 +8 по сезону 1021.3 1001.9
15 20.10 штиль 0 н/о {ливн. осадки} 10/5 600 м
[Sc Ac trans]
+4.6 +1.5 80 +4 +4 по сезону 1021.6 1002.0 0.1
18 20.10 С 1 н/о в посл. час ливневой дождь 10/10 600 м
[Sc]
+4.0 +2.1 87 +3 +3 по сезону 1021.4 1001.8 +7.1 0.6
21 20.10 СЗ 1 н/о дымка 10/10 600 м
[Sc]
+3.8 +1.6 86 +2 +2 по сезону 1021.3 1001.7
00 21.10 штиль 0 н/о дымка 8/8 600 м
[Sc]
+3.3 +1.6 89 +2 +2 по сезону 1020.7 1001.0

 

Местоположение метеостанции Москва (город Москва, Россия): широта 55.83 долгота 37.62 высота над уровнем моря 156 м.

В архиве по умолчанию представлена погода в Москве за последнюю неделю. Архивные данные за месяц целиком и за предыдущие месяцы, начиная с января 2011 года, Вы можете получить, выбрав интересующий диапазон дат из раскрывающегося списка и нажав кнопку "Ввод!".

Внимание! Время в таблицах - всемирное. Для получения местного времени необходимо прибавить поправку, которая в Москве равна 3 ч.

Смотрите также архив погоды в соседних городах и на ближайших метеорологических станциях:

Погода в Москве (Балчуг) (город Москва, Россия) (9 км)
Погода в Москве (Тушино) (город Москва, Россия) (12 км)
Погода в Москве (Строгино) (город Москва, Россия) (14 км)
Погода в Шереметьево (Московская область, Россия) (20 км)
Погода в Немчиновке (город Москва, Россия) (21 км)
Погода в Подмосковной (Московская область, Россия) (29 км)
Погода в Внуково (Московская область, Россия) (33 км)
Погода в Михайловском (Московская область, Россия) (49 км)
Погода в Ново-Йерусалиме (Московская область, Россия) (51 км)
Погода в Домодедово (Московская область, Россия) (51 км)

Пояснения к столбцам:

Ветер - указаны скорость ветра в м/с - средняя за 10 мин, порывы в срок и между сроками (в фигурных скобках) и направление, откуда дует ветер: С - северный, СВ - северо-восточный, В - восточный, ЮВ - юго-восточный, Ю - южный, ЮЗ - юго-западный, З - западный, СЗ - северо-западный.
Видимость - горизонтальная дальность видимости в метрах или километрах. При видимости от 1 до 10 км при отсутствии осадков обычно наблюдается дымка, при ухудшении видимости до 1 км и менее - туман. В сухую погоду видимость может ухудшаться дымом, пылью или мглою.
Явления - указаны атмосферные явления, наблюдавшиеся в срок или в последний час перед сроком; фигурными скобками обозначены явления, наблюдавшиеся между сроками (за 1-3 часа до срока); квадратными скобками обозначены град или гололедные отложения с указанием их диаметра в мм.
Облачность - указаны через наклонную черту общая и нижняя облачность в баллах и высота нижней границы облаков в метрах; квадратными скобками обозначены формы облаков: Ci - перистые, Cs - перисто-слоистые, Cc - перисто-кучевые, Ac - высококучевые, As - высокослоистые, Sc - слоисто-кучевые, Ns - слоисто-дождевые, Cu - кучевые, Cb - кучево-дождевые. Подробнее классификацию облаков см. в Атласе облаков (PDF).
T - Температура воздуха - температура, измеренная на высоте 2 м над землей.
Td - Температура точки росы - температура, при понижении до которой содержащийся в воздухе водяной пар достигнет насыщения.
f - Относительная влажность воздуха - влажноcть воздуха, измеренная на высоте 2 м над землей.
Te - Эффективная температура - температура, которую ощущает одетый по сезону человек в тени. Характеристика душности погоды. При расчете учитывается влияние влажности воздуха и скорости ветра на теплоощущения человека.
Tes - Эффективная температура на солнце - температура, которую ощущает человек, с поправкой на солнечный нагрев. Характеристика знойности погоды. Зависит от высоты солнца над горизонтом, облачности и скорости ветра. Ночью, в пасмурную погоду, а также при ветре 12 м/с и более поправка равна нулю.
P - Атмосферное давление - приведенное к уровню моря атмосферное давление.
Po - Атмосферное давление - измеренное на уровне метеостанции атмосферное давление.
Tmin - Минимальная температура - минимум температуры воздуха на высоте 2 м над землей.
Tmax - Максимальная температура - максимум температуры воздуха на высоте 2 м над землей.
R - Количество осадков - Количество выпавших осадков за период времени, мм. При наведении курсора мыши на число - период времени, за который выпало указанное количество осадков.
R24 - Количество осадков - Количество выпавших осадков за 24 часа, мм.
S - Снежный покров - Высота снежного покрова, см. При наведении курсора мыши на число - состояние снежного покрова и степень покрытия местности в баллах.